sat.trackr.live / text

‹ back to catalog

HYSIS

NORAD 43719 · 2018-096A

PAYLOAD ACTIVE UNKNOWN

§ Identity

Operator
Country
IND
Launch date
2018-11-29
Launch site
SRILR
Launch vehicle
Mass (kg)
RCS (m²)

Purposes: earth_obs

External: N2YO · Heavens-Above · Gunter

§ Orbital elements

Epoch: 2026-09-20T03:40:23.426688Z

Period
97.39 min
Inclination
97.9750°
Eccentricity
0.0001369
Mean motion
14.78659164 rev/d
Perigee alt
632.6 km
Apogee alt
634.5 km
Semi-major
7,011.7 km
B*
1.1262e-4
RAAN
329.1093°
Arg perigee
112.8465°
Mean anomaly
247.2891°
Rev number
42,145

§ Raw data

HYSIS1 43719U 18096A   26263.15304892  .00000773  00000+0  11262-3 0  99902 43719  97.9750 329.1093 0001369 112.8465 247.2891 14.78659164421456

JSON: /api/v1/satellites/43719 · /tle

For live sub-satellite position, see the globe view (requires WebGL).

§ Visibility from observer

Set your observer location to see the next 7 days of passes ≥ 10°. The values pass through the URL so the page stays shareable.

No JS? Fill the form by hand. The geolocation button needs JavaScript.

§ Radio — SatNOGS DB

ModeDescriptionDownlinkUplink
FM Mode S Center 2.245 GHz
FM Mode S STRF 2.263 GHz

2 transmitters · refreshed weekly from db.satnogs.org